* Astronomy

Members Login
Username 
 
Password 
    Remember Me  
Post Info TOPIC: Asteroid 2012 KL18


L

Posts: 131433
Date:
Asteroid 2012 KL18
Permalink  
 


Orbital elements:
2012 KL18                                                Earth MOID = 0.3930 AU
Epoch 2012 Mar. 14.0 TT = JDT 2456000.5                 MPC
M 353.55315              (2000.0)            P               Q
n   0.29549797     Peri.  284.44528     -0.77532058     +0.54716578
a   2.2323711      Node   289.66135     -0.36817552     -0.79735478
e   0.4436772      Incl.   19.56917     -0.51315182     -0.25462713
P   3.34           H   18.9           G   0.15           U   7

MPEC 2012 - K46



__________________
Page 1 of 1  sorted by
 
Quick Reply

Please log in to post quick replies.



Create your own FREE Forum
Report Abuse
Powered by ActiveBoard